Millinocket, ME

12:20 PM EST on February 14, 2016 (GMT -0500)
Millinocket Municipal

Weather History for KMLT - November, 2012

Change the Weather History Date:

Monday, November 12, 2012

  Actual Average Record
Temperature  
Mean Temperature 48 °F 36 °F  
Max Temperature 58 °F 43 °F 70 °F (1903)
Min Temperature 38 °F 29 °F 14 °F (1999)
Degree Days  
Heating Degree Days 17 29  
Month to date heating degree days 320 322  
Since 1 July heating degree days 1025 1256  
Cooling Degree Days 0 0  
Month to date cooling degree days 0 0  
Year to date cooling degree days 443 268  
Moisture  
Dew Point 43 °F    
Average Humidity 81    
Maximum Humidity 100    
Minimum Humidity 61    
Precipitation  
Precipitation 0.00 in 0.13 in 1.12 in (1935)
Month to date precipitation 0.49 1.57  
Year to date precipitation 34.90 36.29  
Sea Level Pressure  
Sea Level Pressure 30.37 in    
Wind  
Wind Speed 4 mph (SSE)    
Max Wind Speed 14 mph    
Max Gust Speed 23 mph    
Visibility 4 miles    
Events Fog    
T = Trace of Precipitation, MM = Missing Value Source: NWS Daily Summary

Daily Weather History Graph

Daily Weather History Graph

Search for Another Location

Airport or City:

Trip Planner

Search our weather history database for the weather conditions in past years. The results will help you decide how hot, cold, wet, or windy it might be!

Date:

Astronomy

Nov. 12, 2012 Rise Set
Actual Time 6:30 AM EST 4:06 PM EST
Civil Twilight 5:58 AM EST 4:38 PM EST
Nautical Twilight 5:22 AM EST 5:14 PM EST
Astronomical Twilight 4:47 AM EST 5:49 PM EST
Moon 4:49 AM EST (11/12) 3:10 PM EST (11/12)
Length of Visible Light 10h 40m
Length of Day
9h 36m
Waning Crescent, 2% of the Moon is Illuminated
Nov 12
Waning Crescent
Nov 13
New
Nov 20
First Quarter
Nov 28
Full
Dec 6
Last Quarter

Hourly Weather History & Observations

Time (EST) Temp. Windchill Dew Point Humidity Pressure Visibility Wind Dir Wind Speed Gust Speed Precip Events Conditions
12:28 AM 37.4 °F 34.9 °F 37.4 °F 100% 30.42 in 2.5 mi Variable 3.5 mph - N/A   Overcast
12:53 AM 39.0 °F 36.8 °F 37.9 °F 96% 30.45 in 1.2 mi Variable 3.5 mph - N/A   Overcast
1:07 AM 39.2 °F 37.0 °F 37.4 °F 93% 30.42 in 1.8 mi Variable 3.5 mph - N/A   Overcast
1:14 AM 39.2 °F 37.0 °F 37.4 °F 93% 30.42 in 3.0 mi SSE 3.5 mph - N/A   Overcast
1:38 AM 39.2 °F - 39.2 °F 100% 30.42 in 1.5 mi Calm Calm - N/A   Overcast
1:43 AM 39.2 °F 37.0 °F 39.2 °F 100% 30.42 in 0.8 mi ESE 3.5 mph - N/A   Overcast
1:53 AM 39.0 °F - 37.9 °F 96% 30.45 in 0.5 mi Calm Calm - N/A Fog Fog
2:53 AM 39.9 °F - 39.0 °F 97% 30.44 in 0.8 mi Calm Calm - N/A   Mist
3:16 AM 41.0 °F - 39.2 °F 93% 30.41 in 1.0 mi Calm Calm - N/A   Overcast
3:24 AM 42.8 °F - 39.2 °F 87% 30.41 in 2.0 mi Calm Calm - N/A   Overcast
3:34 AM 42.8 °F - 41.0 °F 93% 30.40 in 3.0 mi Calm Calm - N/A   Overcast
3:53 AM 42.1 °F - 39.9 °F 92% 30.43 in 1.8 mi Calm Calm - N/A   Overcast
4:07 AM 42.8 °F - 41.0 °F 93% 30.40 in 2.0 mi Calm Calm - N/A   Overcast
4:28 AM 42.8 °F - 41.0 °F 93% 30.40 in 1.2 mi Calm Calm - N/A   Overcast
4:51 AM 42.8 °F - 41.0 °F 93% 30.39 in 1.5 mi Calm Calm - N/A   Overcast
4:53 AM 42.1 °F - 41.0 °F 96% 30.43 in 1.5 mi Calm Calm - N/A   Overcast
5:03 AM 42.8 °F - 41.0 °F 93% 30.40 in 1.0 mi Calm Calm - N/A   Overcast
5:15 AM 42.8 °F - 41.0 °F 93% 30.40 in 0.8 mi Calm Calm - N/A   Mist
5:35 AM 42.8 °F - 41.0 °F 93% 30.39 in 1.2 mi Calm Calm - N/A   Overcast
5:42 AM 42.8 °F - 41.0 °F 93% 30.39 in 1.8 mi Calm Calm - N/A   Overcast
5:53 AM 42.1 °F 40.2 °F 41.0 °F 96% 30.42 in 1.8 mi SSE 3.5 mph - N/A   Overcast
6:03 AM 42.8 °F - 41.0 °F 93% 30.40 in 1.2 mi Calm Calm - N/A   Overcast
6:53 AM 42.1 °F - 41.0 °F 96% 30.44 in 0.8 mi Calm Calm - N/A   Mist
7:21 AM 42.8 °F - 41.0 °F 93% 30.41 in 0.2 mi Calm Calm - N/A Fog Fog
7:53 AM 42.1 °F 39.2 °F 41.0 °F 96% 30.43 in 0.5 mi SSE 4.6 mph - N/A Fog Fog
8:19 AM 42.8 °F 40.1 °F 42.8 °F 100% 30.40 in 1.5 mi SSE 4.6 mph - N/A   Overcast
8:29 AM 42.8 °F 39.3 °F 42.8 °F 100% 30.40 in 2.5 mi Variable 5.8 mph - N/A   Overcast
8:36 AM 42.8 °F 40.1 °F 42.8 °F 100% 30.39 in 3.0 mi SSE 4.6 mph - N/A   Overcast
8:53 AM 43.0 °F 39.5 °F 41.0 °F 93% 30.42 in 2.5 mi Variable 5.8 mph - N/A   Overcast
9:05 AM 42.8 °F 40.1 °F 42.8 °F 100% 30.39 in 1.5 mi Variable 4.6 mph - N/A   Overcast
9:16 AM 42.8 °F 39.3 °F 42.8 °F 100% 30.39 in 2.5 mi Variable 5.8 mph - N/A   Overcast
9:35 AM 42.8 °F 41.1 °F 42.8 °F 100% 30.38 in 3.0 mi Variable 3.5 mph - N/A   Overcast
9:53 AM 44.1 °F 41.5 °F 42.1 °F 93% 30.41 in 6.0 mi Variable 4.6 mph - N/A   Overcast
10:44 AM 46.4 °F 43.5 °F 42.8 °F 87% 30.37 in 9.0 mi SSE 5.8 mph - N/A   Mostly Cloudy
10:53 AM 46.9 °F - 43.0 °F 86% 30.39 in 9.0 mi Variable 3.5 mph - N/A   Partly Cloudy
11:53 AM 50.0 °F - 43.0 °F 77% 30.36 in 10.0 mi Variable 4.6 mph - N/A   Clear
12:53 PM 55.0 °F - 43.0 °F 64% 30.35 in 10.0 mi Variable 4.6 mph - N/A   Clear
1:53 PM 57.0 °F - 45.0 °F 64% 30.33 in 10.0 mi Variable 5.8 mph - N/A   Clear
2:53 PM 57.0 °F - 46.0 °F 67% 30.32 in 10.0 mi Calm Calm - N/A   Clear
3:53 PM 54.0 °F - 46.0 °F 75% 30.31 in 10.0 mi Calm Calm - N/A   Clear
4:53 PM 46.9 °F - 44.1 °F 90% 30.31 in 10.0 mi Calm Calm - N/A   Clear
5:53 PM 52.0 °F - 44.1 °F 74% 30.32 in 10.0 mi SSE 3.5 mph - N/A   Clear
6:53 PM 51.1 °F - 44.1 °F 77% 30.30 in 10.0 mi South 5.8 mph - N/A   Clear
7:53 PM 51.1 °F - 46.9 °F 86% 30.29 in 10.0 mi SSE 3.5 mph - N/A   Clear
8:22 PM 50.0 °F - 46.4 °F 87% 30.26 in 8.0 mi East 3.5 mph - N/A   Mostly Cloudy
8:53 PM 51.1 °F - 48.0 °F 89% 30.27 in 8.0 mi Variable 5.8 mph - N/A   Overcast
9:53 PM 54.0 °F - 51.1 °F 90% 30.25 in 9.0 mi South 8.1 mph - N/A   Overcast
10:53 PM 55.9 °F - 52.0 °F 87% 30.22 in 10.0 mi South 8.1 mph - N/A   Overcast
11:44 PM 55.4 °F - 51.8 °F 88% 30.19 in 10.0 mi South 11.5 mph 21.9 mph N/A   Mostly Cloudy
11:53 PM 55.9 °F - 52.0 °F 87% 30.20 in 10.0 mi South 10.4 mph 21.9 mph N/A   Mostly Cloudy